Flag for Germany Weather past 2 weeks in Öhringen, Baden-Württemberg, Germany

Now
35 °F

Low clouds.


Feels Like: 30 °F
Forecast: 33 / 37 °F
Wind: 5 mph from West

Location: Oehringen

Current Time: Jan 27, 2015 at 3:09:09 AM

Latest Report: Jan 27, 2015 at 2:00 AM


Visibility: 3 mi

Pressure: 30.14 "Hg

Humidity: 97%

Dew point: 34 °F

Location of ÖhringenLocation

Historic Weather in Öhringen — Graph

°F

Öhringen temperature yesterday

Maximum temperature yesterday: 35 °F (at 3:00 PM)
Minimum temperature yesterday: 33 °F (at 8:00 PM)
Average temperature yesterday: 34 °F

Past Weeks' High & Low Weather Summary

 TemperatureHumidityPressure
High59 °F (Jan 13, 3:00 PM)100% (Jan 16, 6:00 PM)30.45 "Hg (Jan 16, 6:00 PM)
Low27 °F (Jan 21, 4:00 AM)29% (Jan 13, 2:00 PM)29.71 "Hg (Jan 15, 8:00 PM)
Average38 °F83%30.04 "Hg
* Reported Jan 12 2:00 AM — Jan 27 2:00 AM, Öhringen, Weather by CustomWeather, © 2014

Note: Actual official high and low records may vary slightly from our data, if they occured in-between our weather recording intervals... More about our weather records

Advertising

Öhringen weather history for previous 24 hours

 ConditionsComfort  
Time TempWeatherWind HumidityBarometerVisibility
2:00 AM
Jan 27
35 °FLow clouds.5 mph97%30.14 "Hg2 mi
1:00 AM34 °FLow clouds.3 mph97%30.14 "Hg2 mi
12:00 AM34 °FLow clouds.5 mph98%30.12 "Hg2 mi
11:00 PM
Jan 26
33 °FLight snow. Low clouds.5 mph98%30.11 "Hg1 mi
10:00 PM33 °FLight freezing rain. Low clouds.3 mph99%30.11 "Hg1 mi
9:00 PM33 °FDrizzle. Low clouds.2 mph99%30.13 "Hg1 mi
8:00 PM33 °FLight snow. Low clouds.2 mph98%30.13 "Hg2 mi
7:00 PM33 °FLight snow. Low clouds.2 mph97%30.15 "Hg2 mi
6:00 PM33 °FLight snow. Low clouds.2 mph96%30.16 "Hg3 mi
5:00 PM34 °FLight snow. Overcast.3 mph90%30.17 "Hg2 mi
4:00 PM35 °FOvercast.3 mph84%30.19 "Hg14 mi
3:00 PM35 °FOvercast.3 mph84%30.22 "Hg19 mi
2:00 PM35 °FOvercast.3 mph87%30.24 "Hg14 mi
1:00 PM35 °FLight freezing rain. Overcast.3 mph92%30.27 "Hg7 mi
12:00 PM34 °FLight snow. Low clouds.2 mph95%30.30 "Hg3 mi
11:00 AM34 °FHeavy snow. Low clouds.2 mph95%30.32 "Hg2 mi
10:00 AM33 °FHeavy snow. Overcast.3 mph96%30.34 "Hg3 mi
9:00 AM33 °FLight snow. Low clouds.3 mph96%30.35 "Hg1 mi
8:00 AM33 °FLight snow. Low clouds.3 mph94%30.35 "Hg3 mi
7:00 AM33 °FLight snow. Low clouds.3 mph96%30.36 "Hg2 mi
6:00 AM33 °FLight snow. Low clouds.3 mph97%30.37 "Hg1 mi
5:00 AM34 °FLight snow. Low clouds.2 mph94%30.37 "Hg2 mi
4:00 AM34 °FFog.2 mph94%30.38 "Hg2 mi
3:00 AM33 °FLow clouds.3 mph93%30.39 "Hg2 mi
Weather by CustomWeather, © 2014

See weather overviewHow to use our weather pages